Ord, NE

9:31 AM CDT on April 23, 2017 (GMT -0500)
Sharp

Weather History for KODX - December, 2013

Change the Weather History Date:

Wednesday, December 11, 2013

  Actual Average Record
Temperature  
Mean Temperature 12 °F 26 °F  
Max Temperature 26 °F 37 °F 57 °F (2004)
Min Temperature -2 °F 14 °F -2 °F (2000)
Degree Days  
Heating Degree Days 53 39  
Month to date heating degree days 538 379  
Since 1 July heating degree days 2018 1860  
Cooling Degree Days 0 0  
Month to date cooling degree days 0 0  
Year to date cooling degree days 907 845  
Moisture  
Dew Point 5 °F    
Average Humidity 99    
Maximum Humidity 99    
Minimum Humidity 99    
Precipitation  
Precipitation 0.00 in 0.03 in 0.42 in (1961)
Month to date precipitation T 0.39  
Year to date precipitation 24.35 24.74  
Sea Level Pressure  
Sea Level Pressure 30.46 in    
Wind  
Wind Speed 11 mph (West)    
Max Wind Speed 18 mph    
Max Gust Speed 25 mph    
Visibility 10 miles    
Events      
T = Trace of Precipitation, MM = Missing Value Source: NWS Daily Summary

Daily Weather History Graph

Daily Weather History Graph

Search for Another Location

Airport or City:

Trip Planner

Search our weather history database for the weather conditions in past years. The results will help you decide how hot, cold, wet, or windy it might be!

Date:

Astronomy

Dec. 11, 2013 Rise Set
Actual Time 7:52 AM CST 5:05 PM CST
Civil Twilight 7:21 AM CST 5:37 PM CST
Nautical Twilight 6:46 AM CST 6:11 PM CST
Astronomical Twilight 6:12 AM CST 6:45 PM CST
Moon 1:43 PM CST (12/11) 2:11 AM CST (12/11)
Length of Visible Light 10h 15m
Length of Day
9h 12m
Waxing Gibbous, 72% of the Moon is Illuminated
Dec 11
Waxing Gibbous
Dec 17
Full
Dec 25
Last Quarter
Jan 1
New
Jan 7
First Quarter

Hourly Weather History & Observations

Time (CST) Temp. Windchill Dew Point Humidity Pressure Visibility Wind Dir Wind Speed Gust Speed Precip Events Conditions
12:36 AM 19.4 °F 7.2 °F 14.0 °F 80% 30.34 in 10.0 mi North 11.5 mph - N/A   Mostly Cloudy
12:53 AM 19.9 °F 6.7 °F 12.9 °F 74% 30.43 in 10.0 mi NNW 13.8 mph 21.9 mph N/A   Overcast
1:53 AM 16.0 °F 2.3 °F 10.0 °F 77% 30.46 in 10.0 mi NNW 12.7 mph - N/A   Overcast
2:16 AM 12.2 °F -5.3 °F 8.6 °F 85% 30.38 in 10.0 mi NNW 18.4 mph 25.3 mph N/A   Mostly Cloudy
2:28 AM 12.2 °F -4.3 °F 3.2 °F 67% 30.39 in 10.0 mi NNW 16.1 mph 23.0 mph N/A   Partly Cloudy
2:53 AM 10.0 °F -4.5 °F 3.0 °F 73% 30.51 in 10.0 mi NNW 11.5 mph - N/A   Clear
3:53 AM 8.1 °F -7.0 °F 1.0 °F 73% 30.53 in 10.0 mi NNW 11.5 mph - N/A   Clear
4:53 AM 6.1 °F -10.2 °F -2.9 °F 67% 30.55 in 10.0 mi NNW 12.7 mph - N/A   Clear
5:53 AM 3.0 °F -4.4 °F -4.0 °F 73% 30.58 in 10.0 mi NNW 3.5 mph - N/A   Clear
6:53 AM 1.0 °F -6.7 °F -5.1 °F 75% 30.61 in 10.0 mi NW 3.5 mph - N/A   Clear
7:53 AM -0.9 °F - -6.0 °F 79% 30.63 in 10.0 mi Calm Calm - N/A   Clear
8:53 AM 3.9 °F - -2.0 °F 76% 30.66 in 10.0 mi Calm Calm - N/A   Clear
9:53 AM 8.1 °F -3.2 °F -2.0 °F 64% 30.68 in 10.0 mi West 6.9 mph - N/A   Clear
10:53 AM 12.9 °F 2.6 °F -2.0 °F 51% 30.68 in 10.0 mi WSW 6.9 mph - 0.00 in   Clear
12:53 PM 21.0 °F 8.6 °F 3.0 °F 46% 30.48 in 10.0 mi SW 12.7 mph - N/A   Unknown
1:53 PM 23.0 °F 10.1 °F 5.0 °F 46% 30.45 in 10.0 mi SW 15.0 mph - N/A   Clear
2:53 PM 25.0 °F 12.2 °F 8.1 °F 49% 30.41 in 10.0 mi SSW 16.1 mph - N/A   Clear
3:53 PM 25.0 °F 12.6 °F 10.0 °F 53% 30.40 in 10.0 mi SSW 15.0 mph - N/A   Clear
4:53 PM 23.0 °F 11.7 °F 12.0 °F 63% 30.38 in 10.0 mi SSW 11.5 mph - N/A   Clear
5:53 PM 19.9 °F 8.6 °F 12.0 °F 71% 30.37 in 10.0 mi SSW 10.4 mph - N/A   Clear
6:53 PM 18.0 °F 5.4 °F 12.0 °F 78% 30.37 in 10.0 mi SSW 11.5 mph - N/A   Clear
7:53 PM 17.1 °F 5.8 °F 12.0 °F 81% 30.37 in 10.0 mi South 9.2 mph - N/A   Clear
8:53 PM 17.1 °F 6.6 °F 10.9 °F 77% 30.36 in 10.0 mi SSE 8.1 mph - N/A   Clear
9:53 PM 15.1 °F 7.7 °F 10.0 °F 80% 30.35 in 10.0 mi South 4.6 mph - N/A   Clear
10:53 PM 8.1 °F - 6.1 °F 92% 30.34 in 10.0 mi Calm Calm - N/A   Clear
11:53 PM 9.0 °F 2.4 °F 6.1 °F 88% 30.33 in 10.0 mi East 3.5 mph - N/A   Clear